Regional Weather Roundup
Issued by NWS

Home | Current Version | Previous Version | Text Only | Print | Product List | Glossary Off
Versions: 1 2 3 4 5 6 7 8 9 10 11 12 13 14 15 16 17 18 19 20 21 22 23 24 25 26 27 28 29 30 31 32 33 34 35 36 37 38 39 40 41 42 43 44 45 46 47 48 49 50

000
ASUS44 KMEG 211900
RWRTN
TENNESSEE HOURLY STATE WEATHER ROUNDUP
NATIONAL WEATHER SERVICE MEMPHIS TN
200 PM CDT THU AUG 21 2014

TNZ002-004-019-021-049-052-054-088>092-212000-
WEST TENNESSEE

CITY           SKY/WX    TMP DP  RH WIND       PRES   REMARKS
MEMPHIS INTL   PTSUNNY   94  71  47 SW12G17   30.10F HX 101
NWS MEMPHIS      N/A     92 N/A N/A MISG        N/A
JACKSON        MOSUNNY   91  73  55 SW8       30.10F HX  99
DYERSBURG      MOSUNNY   91  70  49 SW12      30.08F HX  97
UNION CITY     SUNNY     90  73  58 SW10      30.06F HX  98
PARIS          SUNNY     90  72  55 SW8       30.10S HX  96
LEXINGTON      MOSUNNY   91  72  52 S10       30.10F HX  98
SAVANNAH       MOSUNNY   90  75  62 SW8       30.12F HX 100
$$

TNZ008-025-027-028-033-062-065-066-212000-
NORTH MIDDLE TENNESSEE

CITY           SKY/WX    TMP DP  RH WIND       PRES   REMARKS
NASHVILLE      MOSUNNY   92  71  50 W6        30.11F HX  98
CLARKSVILLE    SUNNY     92  71  50 SW7       30.08F HX  98
COOKEVILLE     SUNNY     91  75  59 VRB5      30.15F HX 102
CROSSVILLE     MOSUNNY   84  67  56 W12       30.21F
$$

TNZ061-075-076-078-094-096-097-212000-
SOUTH MIDDLE TENNESSEE

CITY           SKY/WX    TMP DP  RH WIND       PRES   REMARKS
FAYETTEVILLE   MOSUNNY   88  70  55 N3        30.15F HX  92
TULLAHOMA      SUNNY     90  70  51 W6        30.16F HX  95
WINCHESTER     SUNNY     90  72  55 W7        30.15F HX  96
SHELBYVILLE    MOSUNNY   93  73  52 VRB3      30.14F HX 102
$$

TNZ017-018-042-046-047-212000-
NORTHEAST TENNESSEE

CITY           SKY/WX    TMP DP  RH WIND       PRES   REMARKS
TRI CITIES     MOSUNNY   83  68  60 VRB5      30.18F
ELIZABETHTON   CLEAR     82  70  65 W6        30.18F
$$

TNZ012-013-036-069-073-074-212000-
CENTRAL EAST TENNESSEE

CITY           SKY/WX    TMP DP  RH WIND       PRES   REMARKS
KNOXVILLE      PTSUNNY   87  72  60 CALM      30.15F HX  93
OAK RIDGE      PTSUNNY   87  72  60 CALM      30.16F HX  93
GATLINBURG     MOCLDY    88  70  55 CALM      30.15F HX  92
$$

TNZ083-085-099-212000-
SOUTHEAST TENNESSEE

CITY           SKY/WX    TMP DP  RH WIND       PRES   REMARKS
CHATTANOOGA    PTSUNNY   92  69  47 MISG      30.14F HX  97
$$

SKY/WX REPORTED AS FAIR MEANS FEW OR NO CLOUDS BELOW
12 THOUSAND FEET.




USA.gov is the U.S. government's official web portal to all federal, state and local government web resources and services.